Weather History for Jackson Hawkins Field, MS

Change the Weather History Date:

Sunday, February 24, 2013

  Actual Average (KJAN) Record (KJAN)
Temperature  
Mean Temperature 54 °F 52 °F  
Max Temperature 70 °F 63 °F 83 °F (1927)
Min Temperature 37 °F 41 °F 18 °F (1968)
Degree Days  
Heating Degree Days 12 13  
Month to date heating degree days 386  
Since 1 July heating degree days 1938  
Cooling Degree Days 0 0  
Month to date cooling degree days 0  
Year to date cooling degree days 4  
Growing Degree Days 4 (Base 50)    
Moisture  
Dew Point 37 °F    
Average Humidity 58    
Maximum Humidity 93    
Minimum Humidity 30    
Precipitation  
Precipitation 0.00 in 0.16 in 1.52 in (1985)
Month to date precipitation 4.11  
Year to date precipitation 9.08  
Sea Level Pressure  
Sea Level Pressure 29.94 in    
Wind  
Wind Speed 4 mph (ENE)    
Max Wind Speed 12 mph    
Max Gust Speed -    
Visibility 10 miles    
Events      
T = Trace of Precipitation, MM = Missing Value Source: NWS Daily Summary

Daily Weather History Graph

Daily Weather History Graph

Search for Another Location

Airport:

Trip Planner

Search our weather history database for the weather conditions in past years. The results will help you decide how hot, cold, wet, or windy it might be!

Date:

Astronomy

Feb. 24, 2013 Rise Set
Actual Time 6:33 AM CST 5:54 PM CST
Civil Twilight 6:09 AM CST 6:19 PM CST
Nautical Twilight 5:40 AM CST 6:48 PM CST
Astronomical Twilight 5:12 AM CST 7:16 PM CST
Moon 5:05 PM CST (2/24) 5:29 AM CST (2/24)
Length of Visible Light 12h 10m
Length of Day
11h 20m
Waxing Gibbous, 99% of the Moon is Illuminated
Feb 24
Waxing Gibbous
Feb 25
Full
Mar 4
Last Quarter
Mar 11
New
Mar 19
First Quarter

Hourly Weather History & Observations

Time (CST) Temp. Windchill Dew Point Humidity Pressure Visibility Wind Dir Wind Speed Gust Speed Precip Events Conditions
12:53 AM 39.0 °F - 37.0 °F 93% 29.99 in 10.0 mi Calm Calm - N/A   Clear
1:53 AM 37.0 °F 34.5 °F 35.1 °F 93% 29.99 in 10.0 mi NW 3.5 mph - N/A   Clear
2:53 AM 37.9 °F - 36.0 °F 93% 29.99 in 10.0 mi Calm Calm - N/A   Clear
3:53 AM 37.0 °F - 35.1 °F 93% 29.98 in 10.0 mi Calm Calm - N/A   Clear
4:53 AM 39.0 °F 36.8 °F 35.1 °F 86% 29.98 in 10.0 mi ENE 3.5 mph - N/A   Clear
5:53 AM 39.0 °F - 35.1 °F 86% 29.99 in 10.0 mi Calm Calm - N/A   Clear
6:53 AM 37.9 °F 35.5 °F 35.1 °F 89% 30.00 in 10.0 mi NE 3.5 mph - N/A   Clear
7:53 AM 44.1 °F 40.1 °F 36.0 °F 73% 30.00 in 10.0 mi ENE 6.9 mph - N/A   Clear
8:53 AM 48.9 °F - 36.0 °F 61% 30.03 in 10.0 mi ENE 6.9 mph - N/A   Clear
9:53 AM 54.0 °F - 37.0 °F 53% 30.04 in 10.0 mi Variable 5.8 mph - N/A   Clear
10:53 AM 57.9 °F - 37.0 °F 46% 30.03 in 10.0 mi NE 5.8 mph - N/A   Clear
11:53 AM 61.0 °F - 37.0 °F 41% 30.01 in 10.0 mi ESE 8.1 mph - N/A   Clear
12:53 PM 63.0 °F - 37.9 °F 40% 29.96 in 10.0 mi ESE 6.9 mph - N/A   Clear
1:53 PM 66.0 °F - 39.0 °F 37% 29.93 in 10.0 mi East 9.2 mph - N/A   Clear
2:53 PM 69.1 °F - 37.9 °F 32% 29.90 in 10.0 mi East 6.9 mph - N/A   Clear
3:53 PM 70.0 °F - 37.0 °F 30% 29.88 in 10.0 mi Variable 5.8 mph - N/A   Clear
4:53 PM 68.0 °F - 36.0 °F 31% 29.88 in 10.0 mi SE 9.2 mph - N/A   Clear
5:53 PM 64.0 °F - 37.9 °F 38% 29.87 in 10.0 mi ENE 4.6 mph - N/A   Clear
6:53 PM 62.1 °F - 39.0 °F 43% 29.87 in 10.0 mi East 4.6 mph - N/A   Clear
7:53 PM 62.1 °F - 39.9 °F 44% 29.86 in 10.0 mi ENE 8.1 mph - N/A   Clear
8:53 PM 60.1 °F - 39.9 °F 47% 29.83 in 10.0 mi East 11.5 mph - N/A   Clear
9:53 PM 60.1 °F - 39.9 °F 47% 29.83 in 10.0 mi East 6.9 mph - N/A   Clear
10:53 PM 60.1 °F - 39.9 °F 47% 29.84 in 10.0 mi East 6.9 mph - N/A   Clear
11:53 PM 59.0 °F - 39.9 °F 49% 29.77 in 10.0 mi ENE 9.2 mph - N/A   Scattered Clouds